カタログに戻る

TITAN 3C TRANSTAGE DEB

LostHEO
NORAD 20760·DEBRIS·🇺🇸 United States

打ち上げ Dec 21, 1965 から Cape Canaveral Space Force Station

Loading…

次のパス (今後24時間)

TLE

古いSource: Space-Track

元期: Mar 14, 2026, 04:50 UTC

1 20760U 65108AE  26073.20171028 -.00000182  00000-0 -11916-2 0  9997
2 20760  27.4554   4.0470 6692182 234.2318 337.8733  2.84508125148648

AllMySatでTITAN 3C TRANSTAGE DEBをリアルタイム追跡

Download on the App Store